Theta_e
327 329 328 329 330 328 328 328 327 329 329 329 327 325 328 331 330 334 348 350 347 351 355 352 352 352 351 351 353 353 354 355 354 353 352 351 350 348 346 344 343 343 341 340 339 338 338 337 334 333 333 334 332 331 330 329 327 326 324 323 323 322 321 321 320 319 319 318 318 317 318 318 317 317 317 317 318 318 318 319 318 318 319 320 320 319 318
326 329 328 329 329 327 328 328 328 329 330 331 332 333 339 341 338 345 351 348 348 352 352 353 353 352 352 352 353 353 353 353 352 352 351 350 349 348 347 345 344 343 341 340 338 338 337 335 334 334 334 333 332 330 329 328 327 325 323 323 322 321 321 320 320 319 319 319 318 318 318 318 318 317 317 318 318 319 319 319 317 317 318 319 319 319 319
323 328 329 329 329 327 326 327 329 331 331 332 333 334 341 341 338 344 349 348 349 349 350 354 353 351 353 352 352 354 352 351 351 351 350 349 348 348 347 345 344 343 341 339 338 338 337 335 335 335 334 333 331 330 329 328 327 324 323 323 322 321 321 321 320 320 319 319 318 318 318 318 318 318 318 318 319 319 319 320 318 316 317 318 318 318 319
320 326 327 327 329 328 324 325 328 330 330 331 332 334 338 339 338 342 343 343 348 351 352 355 354 352 353 352 352 353 351 351 350 350 350 349 348 347 346 345 344 343 341 339 338 337 336 336 336 334 333 332 331 330 329 328 325 324 323 323 321 321 322 321 321 321 320 319 319 318 318 318 318 318 318 318 319 319 319 319 318 317 319 320 320 320 320
319 326 328 328 327 323 324 329 333 331 331 333 336 339 340 339 339 339 337 340 350 355 354 354 354 353 353 353 352 351 350 350 350 350 350 348 347 347 346 345 344 342 341 340 339 338 337 337 335 334 333 332 331 330 329 326 324 323 322 322 322 322 322 321 321 321 320 319 319 318 318 318 318 319 319 318 319 320 319 318 318 319 320 321 321 321 321
319 326 329 326 323 322 326 336 336 332 335 338 340 340 340 340 339 338 338 345 353 355 354 354 353 353 353 352 351 350 350 350 350 351 350 348 347 346 345 344 342 341 341 340 339 338 338 337 335 334 333 332 331 330 328 325 324 323 322 322 322 322 322 321 322 321 320 320 320 319 318 319 319 319 319 319 320 321 320 319 320 320 320 321 321 321 321
321 326 326 322 321 327 334 335 334 334 337 339 339 340 341 341 341 340 345 351 354 354 354 354 353 352 352 351 351 351 350 349 350 350 349 348 347 345 345 343 342 341 341 341 339 339 338 337 335 334 333 332 330 328 326 324 323 323 322 322 322 323 323 322 322 322 321 321 320 320 319 319 319 320 320 320 321 321 320 321 322 321 320 321 321 321 321
324 323 321 320 324 332 335 334 333 335 337 339 339 341 343 342 341 344 349 351 351 350 349 352 353 352 351 351 351 351 350 350 350 349 348 348 346 345 345 343 341 342 341 340 340 339 338 336 335 334 333 331 329 327 325 324 323 323 323 322 322 323 323 323 323 322 322 321 320 320 320 320 320 320 321 321 321 319 318 320 321 321 320 321 321 321 321
326 320 319 322 326 328 331 333 334 334 337 340 339 340 343 342 341 347 350 348 348 345 341 347 352 351 352 352 350 350 350 350 349 348 347 346 345 345 344 342 341 341 341 340 340 338 337 336 334 333 332 329 328 326 324 324 324 323 322 322 323 323 323 323 323 322 322 321 321 321 321 320 321 321 321 321 321 320 319 320 320 320 321 321 321 321 321
327 323 321 322 323 324 328 332 337 336 335 340 339 337 339 342 342 347 350 348 347 345 341 345 351 352 352 352 350 350 350 349 348 347 346 345 345 344 343 342 341 341 340 340 339 337 337 335 333 333 330 327 326 325 323 323 323 323 323 323 323 323 323 323 323 323 322 321 321 321 321 321 321 321 321 322 322 322 321 320 320 321 321 321 320 320 321
326 324 321 321 321 325 332 336 338 334 335 341 338 332 333 340 344 347 350 350 347 347 346 348 351 353 353 352 351 349 349 349 347 346 345 345 344 343 342 341 341 340 340 339 338 337 336 334 332 332 329 326 325 324 323 323 323 323 323 322 322 322 323 323 323 323 322 321 321 321 321 321 320 320 322 322 321 321 320 319 320 321 321 321 321 320 321
324 324 322 322 325 330 335 336 335 335 336 335 331 328 333 344 346 345 348 350 348 350 352 351 352 352 352 352 351 348 348 347 347 346 345 344 344 343 342 341 340 340 339 338 337 336 335 333 332 330 328 326 325 324 324 323 323 322 322 322 321 321 322 324 324 323 323 321 321 321 321 321 321 320 321 321 319 319 319 320 321 322 321 320 320 321 321
323 324 321 323 331 339 339 334 335 338 335 332 333 334 343 349 347 346 347 347 347 350 352 352 353 352 351 352 351 348 347 347 346 345 344 343 343 342 340 340 340 339 338 337 336 335 333 332 330 329 327 326 325 324 324 323 323 322 322 321 321 320 321 323 323 322 321 320 320 320 320 320 321 320 320 320 320 320 320 321 321 321 321 321 321 321 321
326 327 323 320 330 342 343 336 338 338 335 339 342 346 347 345 347 348 347 346 349 351 351 351 352 351 351 351 349 347 347 346 345 344 343 342 342 340 340 340 339 338 337 336 334 333 332 330 329 328 327 326 325 324 323 323 323 322 320 320 320 320 321 321 320 320 320 320 320 320 320 320 320 320 320 320 320 321 321 322 321 321 321 321 322 322 322
330 330 328 327 335 344 344 340 345 344 341 344 348 348 344 343 345 346 346 348 350 350 350 351 351 350 350 350 348 347 347 345 344 343 342 341 340 340 339 339 338 337 335 334 333 332 331 329 328 327 327 326 325 324 323 323 323 321 320 320 320 320 320 320 320 320 320 320 320 320 321 321 320 320 320 320 320 320 321 321 320 321 322 322 322 322 322
333 330 333 338 344 347 342 340 346 348 345 345 346 344 344 344 344 345 347 348 348 348 350 350 350 349 348 348 347 347 346 345 344 342 342 341 339 339 338 337 336 335 334 334 333 331 329 328 327 327 327 326 326 325 323 323 323 321 321 321 320 319 320 321 320 320 321 321 321 321 322 321 320 320 321 320 320 320 321 321 320 321 322 322 322 322 321
339 337 340 343 344 343 339 338 342 343 342 342 342 342 342 343 345 349 349 347 348 350 350 350 349 348 347 347 347 346 344 344 344 342 341 340 338 338 337 336 335 335 334 333 331 329 328 327 327 327 327 327 326 325 324 324 323 322 322 322 321 320 321 321 321 321 321 321 321 321 321 321 321 321 321 320 320 320 321 321 320 321 322 323 322 321 320
340 340 342 340 339 340 339 338 339 338 339 341 343 342 342 343 347 350 350 350 350 350 349 349 348 348 347 347 346 345 344 344 343 341 341 340 338 337 337 335 335 334 333 331 330 328 327 326 326 327 328 326 324 324 325 325 324 323 323 322 321 321 322 321 321 321 321 321 321 321 321 321 321 321 320 321 321 321 321 321 321 321 323 323 322 321 320
339 341 344 342 338 341 342 341 340 339 340 341 343 345 346 347 349 350 350 350 350 349 348 348 347 347 347 347 346 345 344 344 343 341 341 339 338 337 336 335 335 333 332 331 329 327 326 326 326 327 327 324 323 324 325 324 323 324 324 322 321 322 322 321 321 321 321 321 321 321 321 321 321 321 322 322 322 321 321 322 321 321 322 322 321 321 321
341 342 345 343 340 343 345 344 343 342 343 344 344 347 350 349 350 350 349 349 349 348 347 346 346 347 346 345 346 346 345 344 343 342 340 339 338 337 335 335 334 332 331 330 327 325 326 326 326 327 325 323 324 325 324 323 323 323 323 322 322 322 321 321 321 321 321 322 322 321 322 322 322 323 323 323 323 322 322 322 323 323 324 323 321 320 320
340 341 342 342 342 343 343 343 344 346 346 345 345 346 347 348 349 350 348 347 347 346 345 344 345 345 345 345 346 345 344 343 343 341 340 339 338 336 335 334 334 332 330 328 326 325 326 326 326 326 324 324 325 324 322 322 323 323 322 322 322 322 321 321 322 322 322 322 323 323 323 323 324 323 322 322 322 322 321 322 322 321 320 321 321 321 320
339 341 341 340 341 343 341 342 345 345 346 346 344 343 344 345 346 347 345 344 343 342 343 344 344 344 344 345 344 344 343 343 342 341 340 338 337 336 335 334 333 331 329 327 326 326 326 326 326 325 324 325 326 324 321 323 323 322 322 323 322 322 323 322 322 322 321 322 323 323 323 323 324 323 322 321 320 318 317 318 318 315 313 315 319 320 318
341 341 340 339 343 345 343 342 343 343 343 343 343 343 344 344 344 344 342 342 342 341 341 342 343 343 344 343 344 343 343 342 342 341 339 338 337 336 334 333 331 329 327 326 326 327 327 326 326 326 324 325 326 323 321 323 323 322 322 323 323 323 323 322 322 322 321 321 323 323 323 323 324 324 324 323 322 320 317 314 313 313 311 312 315 315 314
343 342 340 339 342 343 341 340 341 341 342 342 342 342 342 342 342 342 341 342 342 340 339 339 341 343 343 342 343 343 342 341 341 340 339 338 337 335 333 331 329 328 327 327 327 327 327 326 327 327 325 324 324 323 321 323 324 322 322 322 323 323 322 322 322 322 322 323 323 323 324 324 323 324 324 323 323 323 319 315 314 314 313 313 313 314 314
343 342 341 339 340 341 340 340 340 340 341 342 341 341 341 340 341 342 341 341 340 339 339 338 339 341 342 341 341 341 341 341 341 339 339 337 336 334 333 330 328 328 327 327 327 327 327 327 327 327 326 324 324 323 322 323 324 324 323 322 323 323 322 323 323 322 323 323 323 322 323 324 324 324 325 324 324 323 322 320 319 318 316 316 316 316 316
343 342 340 339 340 340 340 340 341 340 340 340 340 341 341 341 341 340 340 340 339 339 339 338 337 338 339 340 340 339 339 340 339 338 338 336 335 334 331 329 328 328 327 326 326 326 327 327 327 326 326 325 324 325 324 323 324 325 325 323 323 324 324 323 323 323 323 323 323 323 323 323 324 325 325 324 324 323 322 322 321 321 320 319 319 318 318
343 343 341 340 341 340 339 341 341 340 340 340 341 341 340 340 340 339 338 339 339 338 338 338 336 335 337 339 340 339 338 339 339 337 337 336 334 332 329 328 328 327 326 326 326 326 326 327 326 326 326 325 324 325 325 324 324 325 326 325 324 324 325 324 324 324 324 324 324 324 324 325 326 326 325 325 324 323 323 322 321 321 321 320 320 320 319
343 343 341 341 341 339 338 340 341 341 340 340 340 340 339 339 338 338 338 338 338 338 338 336 336 336 337 338 339 338 338 338 337 336 335 334 331 329 328 327 327 326 325 326 326 326 326 326 325 325 325 325 324 323 324 325 325 324 325 325 326 325 325 325 325 324 325 325 324 324 324 325 326 326 326 326 324 323 323 323 322 321 321 320 320 320 320
342 341 340 340 341 340 339 340 342 342 341 340 338 339 339 338 337 338 338 338 338 337 336 334 335 337 337 337 337 338 338 336 335 334 332 330 328 327 326 326 325 325 325 325 326 326 326 325 325 325 324 324 324 324 323 324 325 324 323 324 325 325 325 325 325 325 325 325 324 324 324 325 325 326 326 326 325 324 324 323 323 322 322 321 321 321 321
340 340 340 340 340 341 342 342 342 342 341 340 338 338 339 337 337 337 337 337 337 336 335 334 334 336 336 336 336 335 335 333 333 331 329 327 326 325 325 325 324 324 325 325 325 326 326 326 326 326 325 324 325 324 324 324 324 324 324 324 324 325 325 325 325 325 325 325 326 325 325 325 325 325 325 325 325 325 324 324 324 323 323 322 322 321 321
338 339 341 342 342 343 344 343 342 341 340 339 339 339 339 338 337 337 336 336 336 335 334 334 333 333 334 335 333 331 330 329 329 328 327 326 325 325 325 325 324 323 324 325 325 326 327 327 327 326 326 325 324 324 325 324 324 324 325 324 325 325 325 325 324 324 324 324 325 325 325 325 325 325 325 325 325 325 325 324 324 323 323 323 322 321 321
338 339 341 341 341 343 343 342 341 340 339 339 339 338 338 338 337 337 336 335 335 334 334 334 333 332 332 332 331 330 329 328 327 327 327 326 325 324 324 324 324 323 323 324 325 326 328 328 327 327 327 327 326 325 324 324 324 324 325 325 325 326 325 325 324 323 323 323 323 323 324 324 324 325 324 324 325 325 324 324 324 323 323 323 322 321 321
339 339 340 340 341 342 341 340 341 340 338 339 339 337 337 338 337 337 336 336 335 334 333 333 333 332 331 330 329 330 329 327 327 327 326 325 325 325 325 324 324 324 324 324 325 326 327 327 327 326 326 326 326 325 325 324 324 324 324 324 325 325 325 325 325 324 324 325 325 324 324 324 324 324 324 324 325 325 324 324 324 323 323 323 322 321 321
339 338 340 341 342 341 339 339 340 339 338 338 337 337 337 338 338 337 336 335 335 334 333 333 332 332 331 329 329 331 330 328 328 328 327 326 326 326 326 325 324 324 325 325 326 326 326 326 326 325 326 326 326 325 325 325 324 324 324 324 324 325 325 325 325 324 324 325 325 325 325 324 324 324 324 324 325 325 325 325 324 324 323 323 322 321 321
340 340 341 342 340 339 339 340 339 338 337 337 336 336 338 339 338 337 336 335 334 334 333 333 333 332 331 329 329 331 331 330 329 329 329 328 327 327 326 326 325 325 325 326 326 326 326 326 325 325 325 326 325 325 324 324 324 324 324 324 324 324 325 325 325 325 324 325 325 325 325 325 324 324 325 325 325 325 324 324 324 324 324 323 322 322 321
339 340 341 340 339 339 340 339 337 336 337 337 337 337 339 339 339 337 336 335 335 334 334 333 333 332 331 330 330 331 331 331 331 330 329 329 329 328 327 326 325 325 326 326 326 326 326 325 325 325 325 325 325 324 324 324 324 324 324 323 323 324 324 324 325 325 324 324 324 324 325 325 325 324 325 325 325 325 324 324 324 324 324 323 322 321 321
339 340 340 339 339 339 339 337 336 337 338 338 338 339 340 339 339 338 336 335 336 336 335 334 333 332 331 330 330 329 329 329 330 330 329 329 330 328 327 327 327 326 327 327 327 326 326 325 325 325 325 325 325 324 324 324 323 324 324 324 324 324 324 324 324 325 324 324 325 324 324 324 324 325 325 325 325 324 324 324 324 324 323 322 322 321 320
340 340 339 339 339 339 339 338 338 338 338 338 338 338 339 339 338 337 335 335 336 337 336 335 334 333 332 330 329 329 328 327 328 328 328 328 329 328 328 328 327 327 327 328 327 326 326 325 325 325 325 324 324 324 323 323 323 323 323 324 324 324 324 324 324 324 324 324 324 324 324 324 325 325 325 325 324 324 324 323 323 323 322 322 321 321 320
340 340 341 341 340 339 338 338 338 338 337 337 336 336 337 337 337 336 334 335 337 337 336 335 334 334 333 331 330 329 328 327 327 327 327 327 327 327 328 328 327 327 327 327 326 325 324 324 324 324 324 324 325 324 324 324 324 324 323 324 324 324 324 324 324 324 324 324 324 324 324 324 324 325 325 324 324 323 323 323 323 322 322 321 321 320 320
341 341 342 341 340 339 339 338 338 337 336 335 334 333 333 334 335 334 335 337 337 335 334 334 335 335 334 333 332 331 329 327 327 328 328 327 327 327 328 328 327 326 325 325 324 324 324 324 324 324 325 325 326 326 326 326 325 325 324 324 324 325 325 325 324 324 324 324 324 324 324 324 325 325 325 324 324 323 323 323 323 322 321 321 320 320 319
339 340 341 340 339 338 337 336 336 335 334 332 331 331 331 332 334 334 334 335 335 334 334 334 334 334 333 333 333 333 331 328 327 328 328 328 327 327 328 329 327 326 325 325 324 324 324 325 325 325 326 326 326 326 326 326 326 326 325 325 325 325 325 325 325 325 325 325 324 324 325 325 325 324 324 323 323 323 323 322 322 322 321 321 320 319 319
338 339 339 338 337 336 334 333 332 332 331 330 330 330 330 331 332 332 331 330 331 331 331 331 331 331 331 331 332 332 331 330 328 328 328 329 329 330 330 329 328 328 327 326 326 325 326 326 326 326 326 326 326 325 326 326 326 326 326 325 325 325 326 326 326 327 326 326 326 325 325 325 325 324 324 323 323 322 322 322 322 321 320 320 320 319 319
337 338 338 337 336 334 332 331 330 330 330 330 330 331 331 330 331 331 330 329 329 330 329 328 328 328 329 329 329 330 329 329 329 329 329 330 331 331 331 329 328 328 328 327 327 327 327 327 328 328 328 327 326 325 325 325 325 325 325 325 326 326 327 327 327 327 327 327 327 326 326 326 325 325 324 323 323 322 322 322 322 321 320 320 320 320 319
336 336 336 336 336 334 333 333 332 331 331 331 332 332 332 332 331 331 331 331 331 331 331 330 329 328 328 328 328 328 329 329 328 329 330 330 330 331 331 329 327 327 327 327 327 328 328 328 328 329 328 327 325 324 323 323 324 325 325 326 326 327 327 327 327 327 327 327 327 327 327 327 326 326 325 324 323 323 323 323 322 321 321 321 321 320 320
334 335 335 335 334 333 333 333 333 333 333 333 333 333 334 334 333 332 332 332 332 332 332 333 332 331 330 329 329 328 329 329 329 328 329 329 329 329 330 329 328 327 327 326 326 328 329 328 327 327 326 325 324 324 324 325 325 326 326 327 327 327 328 328 328 327 327 327 327 327 327 327 327 326 325 324 324 323 323 323 322 322 321 321 321 321 321
334 334 334 334 333 334 333 333 334 335 335 335 335 334 334 334 334 334 334 334 334 333 333 334 334 333 331 329 329 329 329 329 329 328 328 328 328 328 328 329 330 330 329 327 326 327 327 327 326 325 324 325 325 325 325 326 327 327 327 328 328 328 329 329 329 328 328 327 327 327 327 327 327 326 326 325 324 324 323 323 323 322 322 322 322 322 321
333 334 334 334 334 334 335 335 335 336 335 335 335 335 334 334 334 335 335 335 335 335 334 334 334 334 332 330 329 329 329 329 329 328 328 328 327 327 327 329 330 330 329 328 327 327 326 326 326 325 325 325 326 326 327 327 328 328 328 329 329 329 330 330 330 330 329 329 329 328 328 327 327 327 326 325 324 324 323 323 323 322 322 322 322 322 322
333 333 334 334 335 335 336 335 335 335 335 335 335 336 336 336 337 337 336 335 336 336 335 335 334 333 333 331 330 330 330 329 329 329 329 329 328 328 327 328 329 329 328 328 328 328 327 326 326 326 327 327 327 327 328 328 329 329 330 330 330 330 330 330 330 330 330 330 330 329 329 328 327 327 326 326 326 325 324 324 323 323 323 323 322 323 323
334 334 334 335 337 337 336 335 335 335 336 336 337 336 336 337 337 337 337 337 336 335 335 335 333 333 333 332 331 331 330 329 329 329 330 330 330 330 329 329 328 328 328 328 329 329 329 328 328 328 328 328 328 328 329 330 331 331 331 332 332 331 330 330 330 330 330 330 330 330 330 329 328 328 327 327 326 326 325 325 324 324 323 323 323 323 324
336 335 335 336 338 337 335 335 335 336 336 337 337 337 337 336 335 334 336 336 335 334 334 333 333 333 333 333 332 332 331 330 330 330 330 330 330 330 330 330 330 330 330 330 330 330 330 330 330 330 330 330 330 330 330 331 332 332 333 333 333 332 331 331 331 331 331 331 331 330 330 330 329 329 329 328 327 326 325 325 324 324 323 323 323 323 323
336 336 336 337 337 336 335 336 337 337 337 336 336 337 336 334 333 333 333 333 332 332 332 332 332 333 333 333 332 331 330 330 331 331 331 331 331 331 331 331 331 330 330 330 330 330 331 331 331 331 331 331 332 332 332 333 333 333 334 333 333 333 332 332 332 332 332 332 332 331 331 331 331 331 330 329 328 327 325 324 324 323 323 323 323 323 323
336 336 337 337 336 336 336 337 338 338 336 335 335 335 334 331 331 332 332 330 330 330 330 330 331 332 332 331 331 330 330 330 331 331 331 332 332 332 331 331 331 331 331 331 331 331 332 332 332 333 334 334 334 334 334 333 333 333 333 332 332 332 332 332 331 331 331 331 331 331 331 331 332 331 330 328 327 326 326 325 324 324 323 323 323 323 323
Wind_Speed
12 13 13 15 15 11 8 11 14 15 12 9 8 10 11 7 3 6 7 13 13 11 12 12 12 12 12 12 14 16 17 18 19 19 20 22 22 21 23 23 21 21 22 23 26 26 22 20 22 23 21 17 17 17 17 14 12 10 10 11 10 9 9 8 7 7 7 6 7 8 9 8 8 7 6 6 6 6 4 4 4 3 2 5 6 6 7
14 15 15 16 15 11 8 10 12 11 8 7 10 14 15 12 11 10 10 12 11 9 11 12 14 16 15 15 16 17 18 18 19 19 20 21 21 20 21 21 21 21 21 24 26 24 22 23 24 22 20 19 17 16 16 14 11 10 11 11 10 9 9 8 6 7 8 6 6 8 9 7 6 6 5 5 5 4 4 5 3 2 3 3 4 3 4
12 16 16 12 8 8 12 13 10 6 4 5 4 7 11 11 7 6 9 10 8 7 9 12 17 20 18 16 17 18 18 17 18 19 19 20 20 20 20 20 20 21 23 25 26 24 23 24 23 21 20 20 18 17 16 15 11 9 10 11 9 9 10 9 8 8 8 6 4 6 8 6 5 5 4 3 3 4 3 4 5 1 2 1 2 2 1
8 13 16 9 4 7 13 14 9 7 9 7 1 4 9 8 4 3 5 5 4 6 10 14 17 18 18 18 17 17 17 17 18 19 19 19 20 21 21 19 20 22 25 26 26 25 24 24 23 22 21 20 19 16 15 14 11 10 10 11 10 10 9 9 8 8 8 6 4 5 6 6 5 4 3 2 2 2 1 5 7 4 5 5 5 4 3
7 8 10 11 8 7 8 8 9 8 9 7 7 12 11 6 2 1 1 1 4 8 10 13 15 15 16 17 18 18 18 18 19 18 18 19 20 22 22 20 20 22 23 24 25 25 25 24 23 23 20 19 18 14 12 13 12 10 10 11 11 10 8 7 8 7 7 7 5 4 4 4 5 3 2 2 1 1 3 6 7 4 5 6 8 7 6
7 5 6 8 7 4 3 5 9 10 11 13 14 13 12 9 5 3 3 2 7 12 12 11 12 13 14 16 17 18 18 19 19 18 19 20 20 22 23 22 21 22 22 23 24 24 24 23 21 21 20 18 17 14 12 13 12 10 10 11 11 10 8 7 9 7 6 6 5 4 3 2 3 4 2 1 0 2 4 7 9 5 2 4 6 7 7
6 5 6 7 3 1 4 4 4 8 12 17 14 11 12 10 6 5 3 3 5 4 5 10 13 12 13 15 16 16 17 18 18 18 19 21 21 22 23 23 21 22 23 23 24 24 24 22 19 20 20 17 14 13 12 12 12 12 11 11 11 10 9 9 9 7 7 7 5 4 4 2 2 3 3 3 3 5 6 5 7 6 6 5 5 6 8
6 5 6 4 1 2 8 5 3 4 7 12 10 5 5 4 5 4 2 6 9 12 11 0 11 13 12 14 14 15 16 17 18 19 20 21 21 22 23 22 21 23 23 22 23 24 23 21 20 20 18 14 12 13 13 12 12 12 11 11 11 10 9 9 9 7 7 7 5 4 5 4 3 2 4 6 7 7 6 4 4 6 7 7 6 6 7
5 6 6 2 1 5 8 3 4 4 4 8 6 2 2 6 8 5 6 5 10 12 10 11 8 16 13 10 10 14 16 17 18 19 19 20 21 22 22 20 19 22 23 21 22 24 23 22 21 19 17 14 13 13 13 12 12 11 11 10 10 11 10 9 9 8 7 6 6 5 4 4 4 4 5 7 7 6 4 3 4 5 6 7 8 8 7
3 6 7 4 3 6 4 5 4 3 4 11 9 3 4 7 6 7 11 8 11 14 8 14 12 17 10 6 9 14 16 17 18 19 19 20 21 22 21 20 20 22 22 21 22 22 22 22 20 17 15 14 14 14 13 13 12 11 11 11 10 11 11 9 9 9 7 6 6 5 4 3 3 4 5 7 7 6 5 4 3 5 7 7 9 10 9
4 6 7 6 4 4 4 6 6 1 4 9 7 2 1 5 7 9 12 12 12 17 20 19 16 12 6 5 11 18 19 18 19 20 21 21 22 22 20 20 22 24 23 21 21 21 21 21 20 18 16 15 15 15 13 12 11 11 11 10 9 10 10 9 10 10 8 7 7 5 4 4 3 3 6 9 8 7 6 4 4 7 8 7 9 10 10
7 7 7 5 1 4 7 5 3 3 3 3 1 2 2 3 8 11 12 12 11 15 22 22 15 6 4 3 15 21 21 20 20 21 21 22 23 22 21 21 23 24 24 23 22 21 21 20 18 18 17 16 15 14 13 12 11 10 11 10 9 10 10 9 9 9 8 7 7 6 6 5 4 4 8 10 9 8 7 6 6 8 9 9 9 10 10
7 7 7 5 1 6 7 4 7 8 3 1 2 2 4 3 6 10 13 14 13 15 18 17 10 2 2 7 21 24 21 21 22 21 22 23 22 22 22 23 24 24 23 22 21 21 20 19 17 17 17 17 15 13 12 12 10 9 11 11 8 7 9 9 7 7 7 7 6 6 7 6 5 6 8 8 8 10 10 9 10 10 9 9 10 10 10
6 5 7 6 2 10 17 11 11 13 8 1 1 3 4 5 6 6 9 13 15 17 17 12 9 9 11 17 23 22 21 22 23 22 23 23 22 22 23 24 24 23 22 21 21 20 18 18 18 17 17 17 15 13 12 11 10 10 11 11 8 7 8 8 7 7 7 7 7 7 7 6 5 5 6 7 7 8 10 12 13 13 10 10 10 11 11
3 3 6 4 1 9 21 15 10 10 6 2 5 4 2 3 2 2 5 8 12 14 13 11 15 18 18 20 21 19 20 22 22 23 24 23 23 24 25 24 23 22 21 21 21 20 18 18 18 17 17 16 14 13 13 12 11 11 11 11 11 10 9 8 8 8 8 8 8 7 6 5 6 6 8 8 6 7 11 14 16 14 11 10 11 11 10
3 2 2 1 3 5 11 8 6 5 5 4 3 2 5 6 6 6 6 8 12 13 11 12 17 18 16 19 21 20 21 22 23 23 22 23 24 24 24 23 23 22 21 22 21 19 18 18 18 17 16 15 14 14 13 12 12 12 11 11 11 11 10 9 8 8 7 7 7 6 6 7 7 8 8 9 7 8 13 16 16 14 11 10 10 10 10
3 2 3 3 3 4 5 1 5 3 2 3 1 3 4 6 6 8 9 10 11 11 10 13 16 16 16 18 20 19 20 22 23 23 22 23 24 23 22 23 22 22 22 23 22 19 17 17 17 16 15 15 15 14 13 14 13 12 12 12 11 10 10 9 8 7 7 7 7 7 8 8 9 8 8 10 10 12 15 17 15 13 11 10 9 8 10
3 4 5 3 1 1 4 2 4 3 4 7 6 5 6 4 4 5 8 10 11 11 12 13 13 14 17 19 19 18 20 21 22 22 23 23 23 22 22 22 22 22 22 22 22 20 17 16 16 16 15 15 15 14 14 14 14 13 13 13 12 10 9 9 8 8 7 7 7 7 8 8 9 10 10 12 13 13 13 13 13 11 9 8 6 7 10
2 1 2 0 2 1 3 3 0 1 2 4 4 2 1 3 4 5 7 9 10 12 12 11 11 14 17 18 19 19 20 21 21 21 22 22 22 22 22 22 22 22 22 23 23 20 17 16 16 16 15 15 15 15 15 14 14 14 13 13 12 11 9 8 8 8 8 9 8 8 9 10 10 12 13 13 13 14 14 13 12 9 7 7 6 7 9
1 2 1 1 2 4 8 10 6 3 3 5 6 5 4 5 6 6 8 9 10 10 10 9 11 14 15 16 18 19 20 22 22 22 22 22 23 23 23 23 22 21 22 22 20 19 18 17 16 15 15 15 16 15 14 14 14 13 13 13 11 10 9 8 7 8 9 9 9 9 10 12 12 13 14 12 12 13 12 10 10 8 7 8 6 4 5
2 1 1 2 6 7 7 8 8 7 6 5 5 7 7 6 6 6 7 8 7 6 9 11 12 14 15 17 18 19 20 21 22 23 23 23 23 22 22 22 21 21 21 19 16 17 19 18 16 16 16 16 16 15 14 15 14 13 13 12 11 11 10 9 8 9 9 10 12 12 11 12 13 13 12 11 11 11 9 8 10 10 8 7 5 4 4
2 1 2 2 4 3 2 2 4 5 7 6 5 7 7 4 4 5 6 7 6 6 9 14 15 15 16 18 18 19 20 21 22 24 24 23 22 22 21 20 19 19 20 19 17 18 19 18 16 16 16 17 16 15 15 15 14 12 12 11 12 13 11 9 9 10 8 8 11 12 11 11 11 11 9 9 9 10 11 11 11 9 7 6 6 7 7
2 6 5 4 4 1 1 2 4 4 7 7 7 8 8 7 9 8 6 6 9 10 11 14 16 16 16 18 19 19 19 20 22 25 24 23 23 22 19 18 18 18 18 19 19 19 19 18 17 16 16 17 17 15 16 15 14 12 12 12 11 11 10 9 9 10 8 6 7 8 9 10 11 10 10 10 10 11 11 11 10 8 6 6 6 7 7
2 6 5 6 6 1 2 3 4 3 4 5 6 8 9 9 9 9 8 8 9 11 12 13 16 18 17 18 19 19 19 19 22 23 23 23 23 21 18 18 19 19 18 19 19 19 18 18 18 16 16 17 17 16 16 15 13 13 13 13 11 10 10 10 9 9 8 8 7 7 9 10 11 11 11 11 12 12 10 10 10 9 8 8 8 8 9
1 6 6 2 6 3 0 2 4 3 3 6 8 8 8 7 8 11 12 12 11 12 13 13 15 18 19 18 17 18 18 18 20 22 22 22 22 20 17 18 18 17 17 18 19 18 17 17 17 16 15 15 16 16 16 16 14 13 14 15 13 10 11 11 10 10 10 10 10 10 11 11 11 11 10 10 11 13 12 12 12 11 10 11 10 10 9
4 4 3 3 5 4 3 3 3 3 4 8 9 8 8 8 9 11 11 11 11 12 12 13 14 16 19 20 17 16 17 19 20 21 20 21 21 19 17 17 16 15 16 18 18 17 17 16 17 16 15 15 16 15 15 16 16 14 14 15 14 12 12 11 11 11 11 12 12 12 12 13 12 11 11 11 12 13 13 14 14 14 14 13 12 10 9
7 2 3 3 3 5 7 7 8 7 6 7 8 8 8 8 8 8 8 9 10 10 12 14 14 13 16 18 17 16 18 20 21 20 19 20 19 16 16 17 16 15 16 18 17 17 16 16 16 16 15 15 15 15 15 15 16 15 14 14 14 13 13 12 12 12 12 12 12 12 13 13 13 13 12 12 12 12 13 15 15 16 16 15 13 11 11
6 6 4 4 7 9 8 7 7 7 7 7 8 9 11 10 8 8 9 9 10 11 12 13 14 15 17 17 17 18 19 19 19 18 18 18 17 14 16 18 17 15 16 17 17 16 16 16 16 15 14 14 14 14 14 14 15 15 15 14 14 13 13 13 13 13 13 12 12 13 13 13 13 13 13 13 13 13 14 15 16 16 16 16 14 13 14
3 4 3 5 9 10 8 6 7 8 9 11 10 10 11 11 10 9 9 9 10 12 12 11 13 17 18 17 17 19 19 18 18 18 16 16 14 12 14 16 15 14 16 17 17 16 16 16 16 15 14 14 14 14 14 14 15 15 14 14 14 14 13 13 13 13 13 13 14 14 14 14 15 15 15 15 14 15 15 16 16 16 15 15 14 14 15
4 6 6 8 10 12 12 12 12 10 10 11 11 10 10 10 9 9 10 11 11 12 11 10 12 15 18 18 18 17 16 15 16 16 13 12 11 11 12 15 15 15 16 17 17 16 16 16 15 15 14 14 14 14 14 14 15 14 14 13 14 14 14 14 14 13 13 13 14 15 15 16 16 17 17 16 16 16 16 16 16 16 16 16 16 16 16
9 10 9 9 10 11 12 13 11 9 8 10 10 9 9 9 9 10 12 12 12 12 11 11 10 12 17 20 16 13 14 14 12 11 10 10 10 11 12 15 15 15 17 17 17 16 16 15 15 15 14 13 13 13 13 13 14 14 14 14 14 15 15 15 15 14 14 14 14 14 15 16 16 16 16 17 16 17 17 16 16 17 17 17 17 16 15
16 15 11 10 11 11 11 12 11 10 11 10 9 9 9 9 10 12 13 12 13 12 11 11 10 10 15 17 13 11 16 16 12 10 12 12 11 11 11 13 14 15 17 17 17 16 16 15 15 15 14 14 13 13 13 13 13 14 14 14 14 15 15 16 15 15 15 15 15 15 16 16 16 16 17 17 17 17 17 17 18 17 17 17 17 16 15
18 14 13 14 14 12 11 12 12 12 11 10 8 9 9 9 10 13 13 13 14 13 12 12 11 10 14 15 11 11 17 17 12 10 11 12 12 12 11 11 12 14 15 16 16 15 15 15 14 14 14 14 13 13 13 13 14 14 15 15 14 14 15 16 16 16 17 16 16 16 17 17 17 17 17 18 18 18 18 18 18 18 17 17 18 17 15
15 13 16 17 15 11 11 12 11 9 8 9 8 8 9 9 11 13 11 11 13 14 14 14 12 11 13 14 12 12 14 13 10 10 11 12 12 12 12 11 11 12 13 14 15 15 15 15 14 13 13 13 13 13 13 13 13 13 13 14 14 14 14 15 16 16 17 17 17 17 17 17 18 18 19 19 19 19 19 19 20 20 19 18 18 17 16
16 17 19 17 12 11 11 11 9 8 8 9 8 8 8 10 11 12 10 11 13 16 17 16 14 12 12 13 12 12 12 11 10 10 12 14 13 12 12 13 13 13 13 13 15 15 15 14 14 13 13 13 12 12 13 12 12 12 13 15 16 16 16 15 15 15 16 17 17 18 18 18 18 19 19 20 20 19 19 20 20 19 19 19 18 18 17
14 16 16 14 11 11 11 10 9 8 8 9 8 7 8 9 10 10 10 12 15 17 17 16 14 13 12 12 13 12 11 11 11 10 12 14 13 12 12 13 13 14 14 14 15 15 14 14 14 14 14 13 12 12 13 13 13 13 14 15 16 15 15 16 16 16 17 18 18 19 18 18 19 19 19 19 20 20 20 20 20 20 20 20 18 17 18
11 13 12 11 10 10 11 10 9 9 10 9 9 9 8 8 9 10 10 12 15 16 16 14 13 12 12 11 12 11 9 10 11 12 12 13 13 13 13 13 13 14 14 15 15 15 15 14 14 14 15 14 13 13 13 13 13 14 14 14 14 14 15 16 16 17 18 18 18 18 19 18 19 19 19 19 20 20 19 19 19 20 19 19 17 17 17
11 12 10 9 11 13 13 11 10 11 12 11 11 10 8 8 10 10 9 11 15 16 14 13 12 12 11 10 9 9 9 8 10 12 13 13 12 12 12 13 15 15 15 15 14 14 15 14 14 15 16 15 15 15 15 14 15 15 16 16 16 16 16 17 17 17 18 18 18 18 18 18 19 19 18 19 19 19 18 18 19 19 19 19 18 17 17
13 12 11 11 14 15 14 12 11 13 13 11 11 11 9 9 10 9 7 11 15 14 13 13 13 12 11 9 8 7 8 8 10 14 15 14 12 12 11 12 14 15 15 14 13 13 14 15 15 16 17 16 16 16 16 16 17 18 18 18 18 18 18 18 18 19 19 19 19 19 19 20 20 19 19 19 19 18 18 19 19 20 21 19 17 16 16
13 12 12 13 14 14 14 13 13 13 12 11 11 12 10 9 10 9 9 12 15 12 10 12 14 12 11 10 9 7 7 7 10 15 17 15 13 12 12 12 13 13 13 13 13 14 14 15 14 15 16 17 16 16 16 17 18 19 19 19 19 19 19 19 19 19 19 19 19 20 19 20 21 21 20 20 19 18 19 19 19 20 21 19 18 17 17
12 12 13 13 13 13 14 14 14 13 12 12 12 12 10 10 11 10 9 10 11 8 7 9 10 9 9 11 10 9 8 7 9 13 17 16 15 14 13 12 13 13 14 14 14 13 13 14 15 15 15 15 16 16 16 17 17 17 18 18 18 18 19 19 19 19 19 19 19 20 20 20 21 21 20 21 20 19 19 19 19 20 20 20 19 19 17
13 13 13 14 14 14 15 15 14 13 13 13 12 12 11 10 10 10 9 8 7 7 7 7 7 7 8 9 10 11 11 10 9 10 12 13 14 14 13 12 13 15 16 17 17 16 14 14 16 18 18 18 18 18 17 17 16 16 15 16 17 18 19 19 20 20 20 20 21 21 21 21 21 21 21 21 21 19 19 20 21 22 22 21 20 19 18
13 14 14 15 15 15 15 15 14 14 14 13 12 11 11 10 10 10 9 8 8 9 8 8 7 7 7 8 9 10 11 11 11 11 10 10 12 13 13 12 13 14 15 16 16 17 17 17 16 17 18 18 18 17 16 15 16 16 16 17 18 18 19 20 21 21 21 21 22 22 22 22 21 21 21 22 21 20 20 21 22 22 21 19 18 18 18
13 14 15 15 15 15 15 15 14 14 13 12 11 10 9 8 8 8 7 7 8 9 9 9 9 8 7 7 8 9 9 10 12 12 11 11 12 14 15 15 13 12 14 14 14 14 16 16 16 16 17 17 16 15 15 15 16 16 17 18 19 20 21 22 22 23 23 23 23 23 23 23 23 22 22 22 22 21 21 21 22 21 21 20 19 18 18
14 15 15 15 16 16 15 14 13 12 11 11 10 9 8 7 7 7 6 5 6 8 10 10 11 10 8 6 7 7 8 9 10 11 11 12 13 13 15 16 15 13 14 15 15 14 14 14 14 15 16 15 15 15 16 17 17 18 19 20 21 22 23 24 25 25 25 25 25 25 24 24 24 24 23 23 23 22 22 22 23 22 22 21 21 20 19
15 15 16 16 15 15 14 13 12 11 10 9 8 7 7 7 6 6 7 7 8 10 11 12 13 12 10 8 7 7 8 8 9 10 11 12 13 12 11 12 12 13 14 15 15 15 14 14 14 15 15 15 15 16 18 19 19 21 22 23 24 25 25 25 26 26 25 25 25 25 25 24 24 24 24 23 23 22 22 23 23 23 23 22 21 22 21
16 16 16 16 15 14 13 12 11 10 9 8 8 8 8 7 5 4 5 6 8 9 10 12 14 14 13 10 8 7 7 8 9 9 9 11 12 11 8 7 8 10 11 12 13 13 13 13 14 16 17 18 19 20 21 21 22 23 24 25 25 25 25 25 25 25 25 25 25 25 25 26 26 26 26 25 24 24 24 24 25 25 25 24 24 25 24
17 17 16 15 14 14 13 11 11 10 9 7 5 5 5 4 4 3 4 5 7 8 9 11 13 14 14 13 10 8 8 9 9 8 7 8 9 9 9 9 10 12 13 13 12 12 13 15 16 17 18 19 21 22 23 23 24 25 25 25 25 24 24 24 24 24 25 26 26 25 25 25 25 25 25 25 25 26 26 26 26 26 26 26 26 26 26
17 17 16 15 14 13 13 12 10 10 9 6 3 1 1 1 3 5 5 4 4 5 7 8 11 13 14 13 11 9 8 9 9 8 7 7 8 9 9 10 11 13 13 13 12 13 15 16 17 17 18 20 21 23 24 24 24 25 24 24 24 24 24 24 24 24 24 25 26 26 25 24 23 23 24 25 25 26 26 26 26 26 27 27 27 27 27
17 17 17 15 14 14 14 12 9 9 8 6 3 2 2 3 4 4 4 3 3 3 5 7 10 11 11 12 11 10 9 9 9 9 8 8 9 10 10 10 11 12 12 13 14 15 16 17 18 19 20 21 22 23 25 25 24 23 23 23 23 24 24 23 24 25 25 26 27 27 28 27 26 26 26 27 27 27 27 27 27 27 27 27 28 28 28
18 17 16 15 15 15 13 9 7 8 8 5 2 2 2 3 3 2 3 2 1 2 4 7 9 10 10 10 11 10 9 9 9 9 9 10 10 11 12 12 14 15 16 17 17 17 17 18 19 19 20 21 21 21 22 23 23 23 23 22 22 23 23 22 23 23 24 25 26 26 27 27 27 27 28 29 29 28 28 28 29 30 29 30 30 30 30
18 17 16 15 14 14 12 8 6 7 7 4 2 1 2 3 3 3 3 3 3 3 4 6 8 10 9 8 8 8 8 8 9 10 10 10 11 11 12 12 13 15 15 16 16 16 17 17 17 18 19 19 19 19 20 21 22 22 22 21 21 21 21 22 22 23 24 24 25 25 26 26 26 27 28 28 27 27 28 28 29 29 29 30 30 31 31
Wind_Direction
254 252 252 260 260 247 243 263 280 294 306 314 319 321 316 319 75 105 132 136 139 153 158 157 154 148 152 159 155 152 154 151 147 149 150 150 151 151 151 152 155 158 162 162 158 159 162 160 154 147 144 148 156 161 158 143 140 157 155 143 144 139 128 126 125 122 121 124 127 121 118 116 108 101 97 94 86 67 53 62 71 82 82 57 46 28 33
263 255 242 240 255 273 272 260 265 276 299 343 6 12 16 35 76 101 124 130 131 149 158 152 147 147 152 157 154 153 156 156 155 156 155 154 155 156 155 157 160 161 164 166 163 162 163 156 149 147 152 157 158 160 159 151 154 165 153 145 149 144 136 139 141 136 128 117 115 118 116 113 109 105 101 93 86 66 23 3 17 102 129 95 74 73 64
282 281 269 239 238 284 282 271 267 276 324 356 12 36 53 64 69 86 114 123 125 139 146 140 139 144 148 150 150 155 161 163 166 165 160 158 159 160 160 160 162 163 163 164 165 163 159 152 151 155 159 160 158 159 162 164 168 164 149 149 156 154 152 155 150 142 133 123 118 123 121 122 126 121 110 95 82 69 41 338 319 15 94 63 59 80 81
275 287 289 288 297 282 277 289 317 335 319 309 317 70 67 80 97 101 112 124 127 133 135 132 136 144 149 152 154 158 164 169 172 170 165 163 162 161 161 160 160 163 164 164 165 163 157 154 157 160 161 162 164 164 163 164 163 157 153 159 164 165 172 169 151 139 140 141 134 128 134 142 139 125 113 111 77 53 30 294 301 339 18 358 355 0 354
268 284 310 324 316 273 269 308 334 329 315 332 48 65 58 54 93 132 13 29 131 137 135 134 141 149 153 160 165 168 173 176 176 172 167 166 166 163 161 160 157 160 166 166 164 161 158 159 163 164 163 166 170 168 159 158 162 163 164 169 167 170 182 171 146 146 152 147 139 139 151 150 139 137 151 150 142 284 282 303 323 12 26 349 333 338 351
266 280 311 305 294 288 304 325 332 346 19 43 49 46 39 26 3 336 341 25 138 148 149 147 151 155 158 166 172 173 178 180 177 173 168 165 167 165 162 161 162 165 167 165 161 161 162 162 165 167 166 167 170 166 156 159 165 166 169 174 169 171 179 163 152 158 154 143 146 156 160 147 141 159 208 220 315 268 278 320 340 353 355 327 318 325 334
266 273 272 261 253 297 282 285 342 13 48 67 62 32 22 24 354 311 335 67 95 114 147 149 146 152 160 164 171 176 179 181 179 172 167 165 168 168 163 162 167 169 167 163 162 164 165 162 160 163 166 167 164 157 157 165 170 168 171 174 173 176 175 163 163 168 155 152 164 168 168 193 187 185 219 241 267 257 246 289 323 320 322 325 315 318 323
270 265 261 267 353 284 273 290 14 40 68 79 74 29 351 329 273 259 78 74 55 24 353 37 140 146 156 156 168 179 178 180 179 170 166 167 168 169 166 163 167 169 165 163 162 164 163 160 159 162 164 163 159 156 161 171 173 172 175 175 173 179 180 172 172 173 163 161 169 172 179 193 203 223 240 247 263 259 233 241 296 311 322 323 312 316 323
293 281 264 268 331 260 258 303 13 5 81 105 103 95 230 247 245 192 127 103 88 67 337 287 161 139 145 148 168 183 177 178 180 170 167 170 168 167 165 162 166 169 164 162 163 163 162 161 162 163 160 160 166 164 164 173 175 173 178 180 176 180 185 182 178 177 174 172 177 191 198 196 209 241 258 265 275 275 255 259 285 302 316 317 316 325 329
327 300 278 258 249 260 241 136 112 7 85 127 134 148 177 202 219 159 135 131 118 123 205 240 173 144 155 166 174 182 177 177 178 167 165 170 168 166 164 162 165 166 164 164 164 163 162 161 162 163 157 158 168 166 165 175 177 174 179 184 184 187 188 189 189 184 179 182 192 198 189 188 225 258 271 274 278 281 278 279 301 327 339 337 325 323 320
262 274 279 272 262 310 0 99 129 81 78 121 145 211 193 141 149 150 143 144 150 160 178 185 163 156 189 185 172 180 178 175 172 166 164 168 167 164 162 162 163 162 162 163 161 159 162 162 163 165 163 166 172 171 171 177 177 178 187 189 188 188 188 194 198 188 180 190 201 200 197 210 228 249 261 269 278 281 278 289 316 321 320 307 298 304 310
239 242 265 280 294 24 24 41 51 30 69 99 133 267 325 100 142 153 141 139 170 183 172 165 162 185 271 197 167 174 176 170 165 163 164 166 164 162 161 160 160 160 161 160 158 158 163 164 165 170 173 173 173 172 176 180 179 184 191 189 185 180 184 198 199 182 178 190 194 196 208 219 222 243 265 282 300 305 303 310 307 294 288 289 297 308 314
247 239 255 261 91 38 14 21 21 2 327 287 355 321 319 23 115 132 131 144 181 192 173 165 169 212 298 153 156 164 171 167 162 160 161 162 161 161 161 160 159 159 158 159 159 162 164 164 167 173 175 172 170 173 181 181 177 179 181 183 185 177 178 188 181 165 176 187 189 203 211 210 218 241 264 288 309 317 319 316 304 294 295 303 312 316 315
267 258 268 255 109 2 340 352 32 16 351 293 232 288 322 25 62 104 135 159 182 185 177 168 138 112 120 139 150 160 166 164 162 159 157 159 160 159 159 159 158 157 158 160 162 162 163 167 171 175 173 169 168 175 182 179 177 182 179 177 181 172 164 169 167 168 185 193 198 212 213 210 232 258 269 272 279 294 301 298 295 298 302 306 310 310 308
311 301 300 292 126 335 330 345 35 31 17 160 200 220 141 106 124 140 140 166 185 187 181 155 122 120 132 142 149 158 160 161 162 159 157 158 158 157 158 159 159 160 161 164 163 161 163 168 172 174 173 170 172 177 179 177 181 188 182 175 177 172 164 169 177 184 196 199 201 209 213 222 245 258 263 265 267 279 287 290 293 297 299 302 306 306 305
3 348 8 65 179 270 320 358 57 56 65 126 167 150 140 161 174 157 151 183 196 193 178 141 128 133 142 144 148 155 158 159 161 160 160 160 158 158 160 160 161 163 163 163 162 162 168 171 172 174 173 172 175 177 177 179 185 185 178 174 177 172 169 177 185 191 198 199 205 216 222 236 253 259 265 277 284 282 284 288 293 297 298 300 304 309 315
13 20 67 97 171 246 301 57 132 131 123 154 205 290 244 198 160 149 163 183 194 190 163 137 135 142 146 145 150 157 159 158 159 160 163 162 159 160 161 160 163 166 165 163 162 162 168 172 171 173 176 174 173 174 177 183 186 181 173 174 177 172 172 181 187 193 203 208 217 222 217 230 254 263 269 279 282 281 284 290 295 295 294 299 305 309 313
18 43 53 52 115 240 293 235 168 198 223 191 195 257 250 204 151 156 169 170 173 167 148 138 139 143 146 148 152 157 159 159 160 162 164 162 160 162 163 162 166 167 164 166 167 165 168 174 171 172 179 178 170 171 179 183 181 176 174 177 176 174 177 185 189 196 209 218 226 227 225 238 255 264 270 274 278 286 293 299 301 293 285 297 310 300 298
351 61 74 31 193 185 335 340 49 269 229 152 125 35 6 125 132 161 164 156 156 151 143 141 143 145 149 153 156 158 159 160 162 164 166 165 163 164 164 165 169 170 169 172 172 166 168 175 173 172 179 176 170 177 187 184 175 174 177 174 169 171 181 190 197 206 214 220 227 233 241 249 253 259 264 266 275 288 294 298 301 294 282 286 285 272 282
294 227 236 273 95 46 9 9 21 22 49 79 73 65 85 108 115 131 142 140 141 144 146 146 145 147 154 160 160 159 159 161 164 166 168 168 166 166 168 171 172 173 174 174 169 164 169 175 173 174 177 172 173 183 184 175 172 174 173 169 168 175 185 192 206 220 223 228 235 238 246 256 259 260 260 258 269 285 291 294 296 290 275 270 260 253 284
254 194 327 37 68 53 9 2 13 20 31 48 64 72 81 90 91 100 121 127 126 141 154 155 155 156 159 163 164 161 159 162 166 168 169 169 166 167 172 177 177 177 178 176 167 163 172 176 173 176 177 173 176 180 172 174 184 180 171 172 179 184 190 199 217 229 231 236 242 241 242 255 263 266 264 257 258 263 263 267 274 272 264 257 243 239 271
245 21 358 47 69 41 336 348 15 37 56 63 74 75 68 81 117 122 135 140 140 153 159 160 162 160 159 164 165 161 161 164 166 168 169 167 166 168 173 177 179 177 175 173 168 166 173 176 174 177 178 175 179 178 171 183 200 189 176 188 195 193 199 214 225 231 232 237 246 248 246 252 265 277 279 269 263 263 260 261 265 264 258 245 231 234 245
348 349 359 86 95 345 308 54 49 76 95 98 117 128 136 162 169 165 165 158 153 158 165 168 166 161 160 164 163 160 162 166 167 167 168 166 167 170 172 174 179 175 165 164 168 171 175 176 175 178 180 177 181 181 176 188 207 201 186 191 197 199 209 220 224 231 238 241 248 253 252 254 262 270 273 274 278 280 274 270 269 266 260 252 245 249 256
29 0 16 110 126 202 249 112 98 119 125 114 123 135 143 154 163 164 167 169 165 167 174 175 168 161 159 160 160 158 159 164 167 168 168 166 167 170 168 165 169 169 162 165 174 176 176 177 176 179 182 181 183 185 181 185 203 210 200 194 199 211 217 218 226 240 246 250 255 257 258 266 270 267 262 265 275 279 273 267 270 270 265 262 261 265 269
308 355 353 83 112 100 210 135 109 103 113 122 134 145 143 148 166 172 173 179 181 174 169 166 163 161 157 153 154 155 154 158 164 166 165 164 164 170 171 163 160 164 167 174 181 180 178 179 178 179 183 183 183 189 191 190 196 210 210 203 203 213 222 228 241 248 246 251 259 257 258 266 273 271 266 264 271 277 276 272 271 271 267 266 267 270 273
336 1 9 68 99 126 201 201 163 148 131 128 142 156 149 146 165 176 173 173 169 161 155 149 148 151 148 143 145 150 151 154 158 161 163 163 164 171 176 167 163 173 178 180 184 184 181 182 182 181 186 188 185 190 198 199 199 207 217 215 211 216 228 238 249 253 253 257 261 261 264 267 265 262 263 263 267 274 278 276 274 273 271 269 270 272 275
327 305 166 144 161 192 191 179 171 168 148 131 139 152 149 148 160 164 156 147 139 137 140 139 136 137 138 137 139 144 148 153 157 159 163 163 164 175 179 168 165 178 183 182 186 187 185 186 186 185 188 192 192 192 197 203 205 208 215 222 223 225 232 239 247 254 257 258 259 260 263 266 265 262 262 263 266 269 271 271 271 272 274 275 276 276 277
288 259 215 210 218 205 184 166 161 154 148 150 155 156 158 162 162 151 136 127 122 121 123 126 130 134 135 135 138 141 145 151 155 157 163 168 171 178 179 169 167 178 183 183 186 187 187 189 190 189 191 195 197 199 200 206 215 216 215 220 226 231 237 241 245 251 255 257 261 263 262 263 266 267 264 264 267 269 271 271 270 269 273 277 279 279 277
244 218 218 254 232 203 176 169 177 169 164 170 177 176 166 160 157 150 138 129 124 120 118 120 128 134 136 136 140 144 146 152 158 161 169 176 177 178 175 168 169 178 184 185 186 188 190 193 193 194 197 197 199 203 204 208 220 226 224 222 225 229 236 242 245 251 256 258 258 260 262 262 264 264 263 264 265 267 270 273 273 271 271 272 273 274 278
179 195 211 230 212 183 165 173 187 188 177 172 177 183 171 161 164 161 145 134 127 121 120 124 126 131 136 137 141 147 152 157 163 167 169 171 175 181 180 174 174 180 184 185 187 190 193 196 196 197 201 202 202 206 208 211 220 228 232 233 234 235 237 242 246 250 257 262 262 262 263 264 263 263 265 265 266 268 270 273 275 275 273 272 268 269 276
175 204 209 206 197 185 178 178 180 184 186 183 180 177 173 174 173 157 139 132 127 118 120 129 129 133 139 138 140 153 158 154 159 165 164 166 174 179 177 175 179 185 187 187 191 194 195 198 199 200 202 205 207 209 212 215 220 227 233 237 242 243 244 247 252 254 258 262 262 261 263 265 264 264 266 266 266 269 271 273 275 274 273 273 271 269 272
175 196 203 201 200 196 186 178 175 178 188 194 187 174 178 188 177 152 136 131 126 120 125 134 131 131 139 141 148 162 157 153 161 167 165 171 179 178 176 180 185 190 193 193 195 199 201 202 204 204 205 206 208 211 215 219 222 226 234 239 243 248 254 260 266 271 273 273 267 260 259 260 260 261 263 263 263 265 268 271 273 274 273 273 272 271 272
170 192 212 208 197 191 188 186 188 189 187 187 185 182 191 196 174 149 136 130 127 126 132 139 136 133 138 144 153 155 147 150 163 172 167 169 171 171 180 187 186 189 194 194 196 203 208 207 207 210 212 212 212 214 219 224 225 228 235 240 242 247 257 265 271 276 276 274 269 265 263 262 261 260 261 262 263 265 268 269 272 274 274 274 274 274 272
163 184 204 197 185 190 195 187 189 199 192 181 182 191 195 184 160 146 141 140 139 139 141 143 147 149 148 152 159 153 146 154 172 181 176 171 167 171 183 190 191 195 197 198 201 206 210 210 211 214 217 218 219 220 224 230 235 235 237 241 245 249 256 262 269 274 273 268 265 264 264 263 262 262 262 262 265 268 270 271 273 274 274 274 275 275 272
157 173 189 190 192 203 193 175 183 207 197 178 179 185 180 168 157 152 151 148 146 147 148 149 153 153 153 162 169 161 155 164 178 184 182 177 175 183 190 192 199 204 203 205 210 210 211 214 215 214 215 218 221 224 227 231 237 241 243 246 250 254 257 258 260 265 267 267 266 266 265 263 264 264 263 265 267 270 272 273 275 276 273 273 275 275 272
167 175 184 190 200 202 182 169 184 195 178 166 165 156 150 154 155 154 149 142 141 146 148 150 155 156 157 169 177 169 164 174 183 189 192 187 183 188 192 195 202 206 205 209 215 213 212 217 217 214 216 219 223 229 232 233 237 244 248 250 251 253 257 260 262 262 262 262 263 264 264 265 266 266 266 267 270 272 273 273 274 273 272 273 276 276 274
167 169 176 183 187 179 165 162 169 161 145 140 136 132 137 146 147 150 153 146 141 145 150 153 160 163 166 178 184 175 171 183 187 185 186 185 180 183 191 198 205 209 209 213 216 214 214 218 217 217 221 225 230 236 239 238 241 247 251 253 255 256 258 261 263 265 266 266 265 264 264 264 264 265 266 268 270 272 272 272 273 274 274 277 279 278 276
145 149 154 154 152 151 148 146 146 141 135 130 127 129 137 142 142 150 162 152 144 148 157 163 166 168 173 186 190 173 169 188 191 180 178 182 184 189 199 205 208 211 214 216 217 216 216 218 222 226 231 233 238 244 248 248 250 254 256 257 258 260 261 262 263 265 266 266 265 264 263 263 264 265 267 269 271 272 270 270 273 276 278 278 277 275 275
135 137 134 128 130 134 135 134 135 134 132 129 129 131 133 138 145 154 161 152 150 158 170 174 174 176 181 195 203 187 180 193 192 181 183 195 203 204 207 212 213 214 216 216 216 217 219 222 226 233 238 240 240 244 249 253 255 257 259 258 258 259 261 262 264 266 266 266 265 264 263 264 264 265 267 269 271 273 272 273 276 279 280 278 272 268 271
134 136 135 132 130 130 130 128 126 127 128 130 133 135 135 140 147 142 127 130 141 154 170 176 177 179 188 204 219 214 202 202 194 184 185 194 201 199 202 212 218 218 217 217 219 222 225 225 224 230 239 244 245 246 250 254 256 257 258 257 258 261 262 262 264 265 266 266 265 265 265 266 266 266 269 270 270 271 272 274 277 279 277 275 271 266 268
137 137 137 137 134 133 132 129 124 125 130 132 132 135 136 139 141 134 119 122 136 149 158 166 173 182 194 206 216 219 216 216 206 192 187 188 191 192 199 214 221 219 217 218 221 224 226 226 226 231 238 243 244 249 257 260 259 257 256 255 256 259 261 263 265 266 266 266 266 266 267 268 268 269 270 269 268 268 270 273 276 276 275 272 269 265 261
138 138 138 139 137 135 135 133 128 127 131 131 131 134 136 134 136 136 129 131 146 155 155 162 179 198 205 209 217 224 225 224 219 206 198 197 198 199 204 218 228 228 226 227 229 230 230 232 235 240 243 244 245 248 256 260 257 253 252 255 257 259 261 263 265 265 266 268 268 267 267 268 270 270 269 268 266 266 267 270 275 278 278 276 272 266 261
142 141 140 140 140 138 137 138 134 131 132 132 132 135 135 136 142 150 149 147 154 161 162 166 177 188 199 210 220 225 226 224 219 213 211 215 217 216 220 230 237 237 237 240 240 238 237 238 242 246 249 252 253 251 250 251 252 251 254 258 262 263 265 266 266 267 268 269 269 269 268 268 268 268 268 269 268 265 265 268 272 274 275 275 272 269 268
145 146 145 143 144 144 142 141 140 138 138 140 141 143 144 144 153 167 169 162 165 174 180 182 185 188 194 203 211 217 224 226 221 216 216 223 230 235 244 252 253 245 241 241 239 236 237 242 247 251 255 260 262 259 253 250 251 254 259 264 265 266 268 268 267 269 270 270 269 270 269 268 267 267 268 269 269 265 263 266 268 269 270 271 271 270 271
148 150 148 147 148 149 148 148 148 147 148 148 150 156 163 166 176 192 201 202 203 205 203 199 199 201 202 202 205 210 217 224 226 225 226 230 235 242 254 262 261 249 242 240 235 231 235 243 249 251 253 254 256 257 257 255 256 259 263 266 268 269 270 269 269 269 271 270 269 269 268 267 267 268 267 267 267 265 263 263 265 266 268 269 269 269 269
150 151 151 151 151 151 152 153 151 149 150 154 159 171 184 188 193 205 214 220 223 223 220 215 210 207 208 211 211 202 200 214 228 232 234 240 245 251 260 263 251 239 240 246 244 240 241 245 246 247 248 247 249 255 259 261 264 266 268 269 270 270 270 270 270 271 271 270 269 269 267 266 265 266 266 266 265 264 262 262 264 265 265 264 263 264 264
154 154 154 155 155 154 156 158 156 154 158 165 172 182 187 188 192 207 223 231 233 230 228 226 222 217 215 218 216 204 198 212 227 232 234 243 251 254 257 253 238 232 240 248 246 242 242 243 242 244 248 250 254 260 264 266 268 270 271 271 271 270 269 269 270 270 270 270 269 268 267 266 266 266 266 265 263 263 263 264 265 265 263 262 262 263 263
158 158 158 159 159 159 161 162 160 159 162 172 185 185 174 174 195 224 242 251 250 243 234 228 224 220 218 218 219 218 216 222 231 235 232 236 246 250 245 241 243 248 252 251 248 249 251 251 249 251 254 257 260 265 268 269 270 272 272 270 270 268 268 269 270 269 270 271 271 269 267 267 267 266 266 263 262 263 264 264 264 263 261 259 260 262 263
162 162 161 162 163 163 162 162 164 167 169 174 190 198 159 230 253 248 242 239 241 246 242 229 218 215 216 216 218 223 229 233 241 246 240 233 245 255 252 247 252 260 262 259 257 260 264 267 269 271 270 269 270 272 272 271 271 272 271 271 271 270 270 271 271 270 270 271 271 270 269 268 265 263 262 262 263 265 265 264 263 262 261 260 260 260 261
165 165 166 167 169 168 166 166 171 176 173 168 173 200 250 292 282 256 238 226 214 222 229 217 203 201 207 213 217 225 234 239 245 253 251 247 253 263 264 260 259 261 264 264 264 264 265 268 270 272 274 275 276 275 273 272 272 272 270 270 271 272 272 272 272 272 272 272 271 272 273 272 268 264 263 263 264 265 264 263 263 262 261 260 261 260 260
168 169 170 173 173 173 174 175 172 168 167 166 179 221 259 297 292 237 219 226 211 205 211 202 191 190 202 214 220 228 235 237 239 245 251 254 257 262 264 262 261 261 263 265 266 266 267 268 268 270 273 275 276 273 271 270 271 272 272 274 276 277 276 274 273 274 274 274 274 274 275 274 272 269 268 268 269 267 264 263 264 263 263 263 263 262 262
171 171 174 174 173 175 181 186 179 171 174 187 226 267 281 286 269 212 177 161 164 183 199 197 190 191 200 213 223 231 238 242 243 248 256 262 266 268 268 267 266 266 267 269 270 271 271 272 273 275 276 275 273 271 271 271 272 275 278 282 283 282 280 279 278 278 277 276 276 276 275 273 272 272 273 273 272 269 267 267 268 267 266 265 264 264 266